Home   Weather   Lakewood   Past weeks

Flag for USA Past Weather in Lakewood, New Jersey, USA — Yesterday and Last 2 Weeks

Now
39 °F

Heavy rain. Fog.


Feels Like: 29 °F
Forecast: 39 / 40 °F
Wind: 21 mph from Northeast

Location: Lakehurst Naval Air Station

Current Time: Jan 23, 2017 at 6:11:07 pm

Latest Report: Jan 23, 2017 at 5:26 pm


Visibility: 2 mi

Pressure: 29.56 "Hg

Humidity: 96%

Dew Point: 38 °F

Location of LakewoodLocation

Past Weather in Lakewood — Graph

°F

Lakewood Temperature Yesterday

Maximum temperature yesterday: 62 °F (at 2:30 pm)
Minimum temperature yesterday: 46 °F (at 8:00 pm)
Average temperature yesterday: 54 °F

High & Low Weather Summary for the Past Weeks

 TemperatureHumidityPressure
High69 °F (Jan 12, 2:00 pm)97% (Jan 11, 11:00 pm)30.77 "Hg (Jan 11, 11:00 pm)
Low-2 °F (Jan 10, 3:00 am)17% (Jan 16, 2:00 pm)29.53 "Hg (Jan 23, 4:00 pm)
Average44 °F69%30.13 "Hg
* Reported Jan 8 5:00 pm — Jan 23 5:00 pm, Lakewood, Weather by CustomWeather, © 2017

Note: Actual official high and low records may vary slightly from our data, if they occured in-between our weather recording intervals... More about our weather records

Advertising

Lakewood Weather History for the Previous 24 Hours

Scroll right to see more
 ConditionsComfort  
Time TempWeatherWind HumidityBarometerVisibility
5:00 pm
Mon, Jan 23
39 °FHeavy rain. Fog.24 mph96%29.54 "Hg1 mi
4:00 pm39 °FRain. Fog.28 mph96%29.53 "Hg1 mi
3:39 pm39 °FRain. Fog.33 mph96%29.54 "Hg2 mi
3:18 pm39 °FRain. Fog.31 mph96%29.56 "Hg2 mi
3:00 pm39 °FRain. Fog.30 mph96%29.56 "Hg1 mi
2:00 pm39 °FLight rain. Fog.31 mph96%29.57 "Hg1 mi
12:06 pm40 °FLight rain. Fog.29 mph97%29.65 "Hg2 mi
11:00 am40 °FFog.26 mph97%29.68 "Hg5 mi
10:29 am40 °FLight rain. Fog.25 mph97%29.73 "Hg2 mi
10:07 am40 °FLight rain. Fog.28 mph97%29.72 "Hg1 mi
9:52 am40 °FLight rain. Fog.32 mph97%29.72 "Hg2 mi
9:00 am40 °FLight rain. Fog.26 mph97%29.73 "Hg1 mi
8:00 am40 °FLight rain. Fog.28 mph93%29.75 "Hg1 mi
7:15 am41 °FLight rain. Fog.22 mph93%29.75 "Hg2 mi
7:00 am41 °FLight rain. Fog.25 mph93%29.73 "Hg2 mi
6:23 am42 °FLight rain. Fog.23 mph92%29.73 "Hg2 mi
6:00 am43 °FLight rain. Fog.24 mph87%29.72 "Hg2 mi
5:16 am43 °FLight rain. Fog.26 mph93%29.73 "Hg2 mi
5:00 am43 °FLight rain. Fog.29 mph93%29.75 "Hg2 mi
4:39 am43 °FLight rain. Fog.24 mph93%29.74 "Hg2 mi
4:00 am50 °FLight rain. Low clouds.22 mph74%29.73 "Hg1 mi
3:00 am49 °FLight rain. Low clouds.26 mph77%29.74 "Hg1 mi
2:33 am44 °FFog.24 mph93%29.73 "Hg3 mi
2:06 am44 °FLight rain. Fog.24 mph93%29.73 "Hg2 mi
2:00 am52 °FLow clouds.25 mph72%29.72 "Hg2 mi
1:00 am52 °FLow clouds.24 mph72%29.72 "Hg6 mi
12:00 am53 °FLow clouds.21 mph69%29.74 "Hg6 mi
11:00 pm
Sun, Jan 22
53 °FLight rain. Low clouds.21 mph69%29.74 "Hg7 mi
10:00 pm53 °FLow clouds.23 mph69%29.71 "Hg7 mi
9:21 pm55 °FLow clouds.18 mph67%29.71 "Hg6 mi
9:00 pm54 °FLow clouds.21 mph72%29.71 "Hg3 mi
8:34 pm48 °FLight rain. Overcast.21 mph87%29.70 "Hg3 mi
8:07 pm46 °FOvercast.20 mph93%29.69 "Hg10 mi
8:00 pm46 °FLight rain. Fog.18 mph93%29.70 "Hg3 mi
7:00 pm58 °FLow clouds.14 mph62%29.70 "Hg4 mi
6:00 pm58 °FLight rain. Low clouds.10 mph65%29.68 "Hg3 mi
Weather by CustomWeather, © 2017

See weather overviewHow to use our weather pages